Retour au catalogue

STARLINK-3988

ActifCommunicationsVLEO
NORAD 52625·PAYLOAD·🇺🇸 United States

Lancé May 14, 2022 depuis Cape Canaveral Space Force Station

Loading…

Prochains Passages (prochaines 24 heures)

TLE

FraisSource: CelesTrak SupGP

Époque: Sep 14, 2026, 22:20 UTC

1 52625C 22052AD  26257.93104167 -.00007752  00000+0 -22182-3 0  2571
2 52625  53.1571 128.2208 0001336  80.7303 153.0656 15.35399008    11

Suivez STARLINK-3988 en temps réel avec AllMySat

Download on the App Store